{"data":{"norad_id":67385,"intl_designator":"2026-004Y","name":"CAPELLA-18 (ACADIA-8)","alt_names":[],"object_type":"PAYLOAD","status":"ACTIVE","operator":null,"country":"US","launch_date":"2026-01-11","launch_site_code":"AFWTR","launch_vehicle":null,"mission":null,"orbit_class":"UNKNOWN","rcs_meters":null,"size_class":null,"mass_kg":null,"dimensions":null,"purposes":[],"wikipedia_slug":null,"has_3d_model":false,"image_url":null,"decayed_at":null,"tle_current":{"epoch":"2026-09-19T05:41:05.325216Z","epoch_age_seconds":209493,"freshness":"STALE","line1":"1 67385U 26004Y   26262.23686719 -.00002915  00000+0 -32279-3 0  9995","line2":"2 67385  97.8075 259.0899 0000417  69.2941 290.8319 14.86632036 37250","mean_motion":14.86632036,"eccentricity":4.17e-5,"inclination_deg":97.8075,"raan_deg":259.0899,"arg_perigee_deg":69.2941,"mean_anomaly_deg":290.8319,"bstar":-0.00032279,"rev_number":3725,"period_min":96.863242895971,"perigee_km":608.17654189226,"apogee_km":608.75922473952,"semimajor_km":6986.6048833159,"source":"CELESTRAK","updated_at":"2026-09-21T09:00:16.597229Z"}}}